GFSNIL_sfc_temp_000.txt.gz
Temp
69 68 67 67 65 65 64 66 67 67 68 69 69 68 67 66 67 66 65 65 63 63
69 67 67 67 67 66 66 68 68 69 69 68 68 68 67 66 66 67 65 65 64 63
70 68 68 67 67 66 67 67 68 68 68 68 68 67 67 65 66 65 64 64 64 63
70 70 68 67 67 68 67 67 67 67 67 67 67 67 66 65 66 65 64 63 63 64
70 69 67 67 68 67 67 67 67 67 66 66 67 66 65 65 66 65 64 63 62 63
69 68 67 67 67 67 67 67 67 67 66 66 67 66 66 65 66 65 64 64 62 62
70 69 68 67 67 67 67 66 66 66 67 66 67 67 66 66 64 64 64 64 63 62
72 70 68 67 68 67 67 67 66 66 66 66 67 70 66 65 65 63 63 63 63 62
70 69 69 70 68 66 66 66 66 66 66 66 69 67 66 67 63 63 62 60 61 61
69 68 71 71 67 67 67 65 65 66 65 66 66 65 64 66 62 61 60 59 58 60
71 70 71 69 67 68 65 65 66 65 65 65 66 63 62 63 62 60 59 59 59 58
72 71 69 67 65 68 65 64 63 65 65 62 63 61 60 60 59 58 58 57 58 58
72 71 69 68 67 70 65 63 65 64 63 61 62 59 58 58 57 56 55 56 57 58
73 73 72 71 67 65 64 61 61 62 62 61 60 59 56 55 56 56 55 54 54 54

GFSNIL_sfc_temp_003.txt.gz
Temp
66 65 64 64 63 63 63 65 65 66 66 66 67 67 66 64 65 64 64 63 62 61
67 65 65 64 65 64 64 66 66 66 66 67 67 67 66 64 64 65 64 63 63 62
68 67 66 65 65 65 65 65 66 66 66 66 66 66 64 63 64 64 63 63 63 62
68 67 66 66 66 65 65 65 65 66 65 65 65 65 64 64 64 63 63 63 62 63
68 68 66 65 66 66 65 65 66 65 65 64 64 64 64 64 65 64 63 63 62 62
66 67 65 66 66 66 65 65 65 65 64 64 65 64 64 64 64 63 64 63 62 61
68 68 70 70 68 66 65 64 64 65 66 65 65 65 64 64 63 63 63 63 62 61
68 70 70 68 67 67 67 68 65 65 65 65 65 68 65 64 64 63 62 62 62 61
67 68 70 68 66 66 69 67 64 64 64 64 68 66 66 66 63 63 61 60 59 59
67 67 69 70 66 66 68 66 63 64 64 64 65 64 63 66 62 61 60 57 57 58
68 68 69 65 67 69 68 66 65 63 63 63 65 62 61 63 61 59 58 58 58 56
68 70 67 68 71 72 64 63 63 63 63 62 62 60 59 59 59 58 57 56 56 57
70 71 67 69 70 70 65 63 62 64 62 61 62 59 57 57 57 56 55 55 55 58
68 68 67 66 64 64 64 62 62 64 63 63 61 60 56 55 55 55 54 53 53 53

GFSNIL_sfc_temp_006.txt.gz
Temp
70 68 68 67 66 66 66 68 68 68 68 67 68 69 69 68 68 67 67 67 65 65
68 66 66 66 66 66 66 68 67 68 68 68 68 69 69 68 68 68 68 67 67 66
68 67 66 66 65 65 66 67 67 67 67 68 68 68 68 67 68 67 68 67 66 66
69 68 67 67 67 66 66 66 66 66 67 67 67 68 66 66 67 67 67 67 66 66
71 69 69 67 67 66 66 66 66 67 67 67 67 67 66 67 69 67 67 67 66 66
68 68 67 67 66 66 66 66 66 67 66 66 66 66 66 67 67 66 66 67 66 66
69 68 68 67 67 66 67 66 66 66 66 66 66 67 67 67 66 66 67 67 66 66
70 70 68 67 67 67 66 67 67 66 66 67 68 70 67 67 66 66 67 67 66 66
69 69 69 68 68 66 67 66 67 66 66 66 70 66 65 68 67 67 66 66 65 64
69 67 65 65 66 66 66 67 66 66 66 66 67 63 63 65 66 66 65 63 63 63
68 67 65 65 65 66 65 65 66 66 66 66 67 62 61 63 66 65 64 63 62 61
68 67 67 66 65 67 65 65 66 66 65 64 65 59 59 61 64 63 63 62 61 61
69 67 65 66 66 66 65 65 65 65 64 61 63 59 57 59 62 62 61 60 60 58
69 68 67 65 64 63 64 64 63 62 61 63 63 63 57 55 61 62 60 59 61 59

GFSNIL_sfc_temp_009.txt.gz
Temp
81 83 83 81 82 81 82 81 80 79 79 79 78 78 77 79 80 78 77 76 76 78
81 81 81 79 79 81 79 82 79 79 78 78 77 77 77 80 78 77 77 77 77 77
82 80 81 79 76 78 79 79 78 78 78 78 77 78 76 78 78 76 78 78 76 76
82 79 80 78 74 74 77 77 77 77 77 78 77 77 76 76 77 76 76 77 75 75
80 79 76 77 77 77 70 77 77 77 76 77 78 78 76 76 78 76 76 77 76 76
78 78 78 75 76 74 74 76 77 76 75 76 77 77 77 76 76 77 76 76 76 76
79 79 76 74 77 75 71 73 74 75 77 77 78 77 77 77 76 76 77 77 77 76
79 79 79 75 68 66 67 68 70 72 74 76 77 80 76 77 77 76 77 77 76 76
79 78 75 72 70 67 66 66 67 69 70 72 77 69 67 73 77 77 76 75 77 76
78 76 74 72 71 69 66 66 67 68 69 73 75 65 64 66 76 76 76 75 75 75
77 75 74 72 71 69 67 69 66 69 72 74 75 62 61 64 74 74 76 75 74 72
77 75 73 72 69 71 68 68 70 70 71 72 72 60 59 63 68 69 69 74 71 70
76 75 73 71 69 71 71 69 69 71 73 70 73 58 57 61 64 65 68 71 67 60
75 74 74 70 69 69 68 65 65 68 71 69 68 67 55 55 68 65 68 73 72 71

GFSNIL_sfc_temp_012.txt.gz
Temp
86 89 89 88 91 90 91 90 88 85 85 84 84 84 82 84 84 83 82 80 80 84
86 86 90 89 87 90 89 91 88 85 84 85 84 83 82 84 82 82 81 82 81 82
87 87 88 88 85 87 88 86 86 85 84 84 83 82 81 83 82 81 83 84 81 80
89 89 87 87 86 85 85 84 84 83 83 83 82 82 80 81 82 81 80 81 80 80
89 89 88 85 85 83 81 83 83 82 81 81 83 82 80 80 83 80 80 80 80 80
89 88 87 86 85 78 82 77 78 78 75 79 81 80 81 81 81 81 81 81 80 80
89 88 87 86 81 80 75 77 73 77 76 77 78 79 80 80 80 80 81 81 81 81
90 89 87 86 81 80 76 75 72 71 72 74 76 79 78 79 80 79 80 81 82 82
89 85 84 84 80 76 75 74 70 68 68 69 73 71 69 75 81 80 80 79 81 82
88 84 81 82 78 75 75 72 69 68 68 69 72 66 66 68 80 80 80 80 79 77
86 83 80 77 76 76 76 71 71 71 71 72 73 65 64 66 77 78 79 79 78 74
85 83 80 76 73 73 75 71 72 73 75 74 74 61 61 65 78 78 75 74 72 71
85 83 79 78 75 72 71 70 72 76 76 70 71 60 58 61 76 74 66 71 74 62
85 82 79 77 75 72 71 71 74 76 72 70 68 67 56 56 73 71 68 76 68 69

GFSNIL_sfc_temp_015.txt.gz
Temp
88 91 91 90 93 91 93 93 89 87 86 85 85 85 84 84 84 84 83 81 81 84
88 88 91 90 89 93 91 95 90 88 85 85 85 84 83 84 83 83 83 82 82 82
89 89 89 91 90 89 91 90 89 87 86 85 85 84 82 84 83 82 84 84 83 82
90 90 89 90 90 89 86 88 88 86 85 84 83 83 81 82 83 82 81 81 81 81
91 90 90 89 90 89 86 88 86 84 83 84 80 81 80 81 82 81 80 80 80 80
90 90 89 89 90 88 86 86 85 84 79 81 77 76 76 80 79 79 81 81 80 81
90 90 91 90 89 88 86 84 82 82 81 79 75 76 76 77 76 79 81 81 82 82
91 91 91 89 89 88 85 83 82 81 80 78 76 78 73 77 76 77 78 80 82 81
91 90 89 89 88 86 84 82 81 80 78 74 75 69 69 75 77 77 79 79 81 81
91 89 88 88 86 83 82 80 78 79 77 75 75 64 66 68 79 77 77 76 79 80
91 90 88 86 85 81 79 76 78 76 75 75 77 64 63 66 73 75 75 75 79 77
91 89 88 84 82 78 77 75 74 75 73 73 74 62 62 65 70 73 71 74 77 76
90 88 86 83 79 79 78 75 74 73 73 70 77 61 60 64 73 72 69 70 72 63
88 87 86 83 79 78 76 74 73 72 75 77 77 75 57 57 71 76 69 76 75 69

GFSNIL_sfc_temp_018.txt.gz
Temp
84 86 86 86 86 84 84 85 81 82 81 81 80 80 79 78 77 78 77 76 76 75
83 84 86 84 84 86 84 87 82 82 81 80 80 79 78 77 76 78 77 77 76 75
85 84 85 84 84 83 85 84 82 82 81 80 79 79 77 76 77 76 77 77 76 75
85 86 85 85 85 84 84 83 82 81 80 79 79 79 76 75 76 75 75 75 75 75
85 85 85 84 85 85 83 84 82 81 79 79 79 77 75 74 76 74 74 74 73 74
86 85 84 84 84 85 84 82 82 81 79 78 78 76 75 74 74 72 75 74 73 73
85 85 85 85 84 85 84 82 81 81 79 78 78 77 76 75 74 74 75 75 75 74
86 86 86 85 84 84 84 82 82 80 79 78 78 79 75 75 75 74 74 74 75 75
85 85 84 84 84 83 83 82 81 80 79 77 77 69 69 74 75 75 74 72 74 74
85 84 84 84 83 83 82 82 79 78 78 77 75 64 65 69 76 75 74 72 72 72
86 85 84 83 83 83 83 81 79 77 75 75 73 64 63 66 73 74 73 70 69 70
88 86 84 83 83 83 82 80 77 75 74 72 72 62 62 64 69 69 70 70 69 71
89 87 85 84 82 82 80 77 76 74 73 68 70 60 60 62 69 69 70 70 70 65
87 86 86 83 81 77 75 75 73 71 71 71 70 70 58 58 71 73 71 70 70 69

GFSNIL_sfc_temp_021.txt.gz
Temp
78 81 78 77 76 77 77 77 75 75 75 73 73 73 72 70 70 70 69 69 69 68
79 79 78 77 77 77 77 78 77 77 76 74 73 72 71 70 72 71 69 71 69 68
81 81 79 77 77 77 77 77 77 76 76 74 74 72 70 69 71 69 72 70 71 71
81 80 81 77 78 79 77 75 76 77 76 75 73 73 70 69 70 69 70 70 70 69
82 81 80 81 78 78 79 76 78 77 75 75 75 72 72 70 72 69 69 69 68 70
81 81 81 80 81 78 80 78 78 77 76 75 74 73 74 72 69 68 68 69 68 68
81 81 82 82 81 80 80 79 76 77 77 75 74 73 72 69 67 68 68 69 69 70
82 83 82 81 81 81 80 79 78 75 75 74 74 73 71 71 69 68 68 68 69 71
82 81 81 80 80 79 80 78 77 75 73 72 74 70 69 72 72 68 67 66 68 72
82 80 80 80 79 78 79 79 76 75 75 72 73 66 66 69 68 67 67 67 69 70
81 81 81 80 79 80 79 79 76 76 73 73 71 65 64 68 69 67 67 68 68 67
82 81 81 79 80 80 81 78 77 75 75 72 68 62 62 64 66 67 67 67 67 65
83 82 80 81 80 81 79 75 74 72 72 68 68 60 60 63 68 66 66 65 66 65
83 82 81 81 81 76 74 72 70 70 69 68 68 63 58 58 68 68 66 67 66 67

GFSNIL_sfc_temp_024.txt.gz
Temp
77 78 77 74 73 75 77 76 73 74 73 72 71 70 69 68 68 67 67 67 65 65
77 78 78 73 75 75 76 76 74 74 73 72 71 70 69 67 67 67 66 66 66 66
79 79 78 75 75 76 75 76 74 74 73 73 71 69 68 67 68 68 67 69 69 67
79 79 79 78 76 76 77 76 74 74 74 73 71 70 69 67 68 67 66 68 67 67
79 78 79 79 76 77 77 76 76 75 74 73 73 71 71 69 71 68 66 66 66 67
79 78 78 80 80 76 78 75 75 75 74 73 73 71 71 71 69 69 68 67 66 66
79 79 79 80 79 78 78 75 74 75 74 74 73 73 72 72 70 68 67 67 67 67
80 80 80 79 79 79 78 78 74 74 74 73 73 74 72 71 70 67 66 66 67 67
80 79 79 78 78 77 77 76 73 73 73 71 73 70 68 72 70 69 68 66 65 67
79 78 78 78 77 76 76 76 74 72 72 71 72 67 66 69 67 67 67 67 65 67
79 78 78 78 77 77 77 77 74 73 72 72 71 65 64 67 69 68 69 69 68 66
80 78 78 77 76 77 77 77 76 76 73 71 70 62 62 65 67 67 67 68 68 68
81 79 78 78 78 78 79 77 78 75 73 70 72 59 59 65 66 65 65 66 66 63
81 80 80 79 79 79 75 75 74 73 71 71 68 61 57 60 66 67 66 67 63 64

GFSNIL_sfc_temp_027.txt.gz
Temp
79 77 78 74 73 74 73 73 75 74 72 70 69 69 67 66 66 65 65 65 64 67
78 78 76 72 74 74 73 75 72 74 72 71 70 69 67 66 66 66 65 64 65 65
77 78 77 74 73 73 72 73 73 73 72 71 70 69 68 66 66 66 64 64 64 64
78 78 77 76 74 75 72 72 73 73 72 71 70 69 68 66 66 65 65 65 65 65
79 78 77 77 74 75 74 73 73 73 72 72 71 70 69 68 69 65 64 65 65 65
78 77 77 78 78 74 76 74 74 73 72 72 71 70 70 70 68 67 66 65 64 65
78 78 77 79 78 75 76 74 74 74 74 73 72 72 71 70 68 66 67 66 66 65
79 79 78 78 78 78 75 75 75 73 73 73 73 73 72 71 69 66 67 67 68 66
79 79 78 77 77 76 75 76 73 73 73 72 73 69 68 72 70 68 68 66 65 66
78 77 77 77 76 75 75 75 72 73 73 71 72 66 66 68 69 67 66 65 67 67
78 77 77 76 76 75 75 74 74 72 72 72 71 65 63 67 68 66 67 68 67 68
78 77 77 75 76 76 75 75 74 72 71 71 70 62 61 64 68 67 67 68 68 68
79 78 77 77 77 77 77 76 76 73 72 69 72 60 59 64 68 66 66 66 66 63
80 79 78 78 78 76 75 75 75 74 74 72 71 65 57 60 67 67 66 66 65 65

GFSNIL_sfc_temp_030.txt.gz
Temp
76 77 77 75 75 75 75 75 75 75 75 74 73 72 70 70 70 69 69 68 69 69
76 76 76 75 75 76 75 76 75 75 75 74 73 72 70 70 69 69 69 69 69 70
77 77 77 75 74 75 75 75 74 74 74 74 72 72 70 70 69 69 69 69 68 68
77 77 77 75 75 75 75 74 74 74 74 73 72 71 70 69 69 69 68 69 68 68
77 77 77 75 76 75 74 74 74 74 74 73 73 72 71 70 71 69 68 69 68 68
77 76 76 76 76 75 74 73 74 74 73 72 72 71 71 71 70 70 70 69 69 69
77 77 77 77 77 75 75 73 73 74 74 73 73 72 72 72 71 70 71 70 70 70
78 78 77 76 76 76 75 75 74 74 74 74 74 74 72 72 71 70 70 71 71 70
77 77 76 76 76 75 75 75 74 74 74 73 75 70 68 72 72 71 70 69 69 70
77 76 76 76 75 74 74 75 74 74 74 73 74 65 66 69 72 70 69 69 69 69
76 76 76 76 75 75 75 74 74 74 74 73 73 63 64 67 72 70 70 69 69 70
77 76 76 75 75 76 75 75 75 75 73 72 73 62 62 65 70 69 68 69 70 69
77 76 76 76 76 77 77 76 76 75 74 70 73 61 59 65 71 67 67 68 68 64
78 77 77 76 77 77 76 76 74 74 73 73 72 69 57 59 70 69 68 67 66 67

GFSNIL_sfc_temp_036.txt.gz
Temp
86 90 90 90 93 92 94 95 93 90 90 89 90 89 88 89 88 87 86 84 84 90
86 87 90 89 90 93 92 96 93 91 89 90 90 89 87 90 86 87 85 85 84 86
88 88 89 90 89 90 93 91 92 90 90 90 89 88 86 88 87 85 87 88 85 84
89 89 88 89 89 89 90 91 90 89 89 89 89 88 86 87 88 84 84 85 85 82
89 89 89 88 89 89 88 90 89 90 88 89 89 88 86 85 88 85 83 84 83 83
89 89 89 88 89 89 88 89 90 89 88 88 89 88 87 86 86 86 85 85 84 83
89 90 90 89 88 89 88 88 89 89 89 89 89 89 88 87 86 86 86 86 86 85
90 90 90 89 88 89 88 88 89 88 89 90 91 92 88 88 87 86 86 86 86 86
89 88 88 88 87 87 87 87 88 88 88 88 92 79 74 84 89 88 86 85 85 86
89 87 87 88 87 86 85 87 86 87 88 87 88 71 70 72 90 89 87 86 86 86
88 87 87 86 85 85 86 86 86 86 86 87 88 69 67 70 86 88 88 87 86 85
89 87 87 85 85 86 86 86 86 87 86 86 87 66 64 69 85 86 86 88 87 86
89 88 86 86 85 86 86 86 89 88 88 81 86 66 62 69 88 85 88 86 86 70
89 87 87 86 86 86 86 87 85 87 88 87 84 84 59 61 84 91 89 91 89 88

GFSNIL_sfc_temp_039.txt.gz
Temp
88 91 91 91 94 94 96 96 96 91 91 90 91 90 90 91 90 88 87 85 84 91
87 88 91 89 91 95 92 98 96 94 91 91 90 90 89 90 88 89 87 86 85 86
89 88 90 91 89 90 94 93 95 93 92 90 90 90 89 90 90 87 89 89 86 85
90 90 90 91 91 91 92 93 91 91 91 90 90 90 88 88 90 86 85 87 87 84
91 91 90 89 91 91 90 91 91 92 90 90 90 90 88 87 90 88 85 85 85 86
91 91 90 90 90 90 90 90 93 90 89 89 90 89 89 88 87 89 87 87 85 85
92 92 92 91 89 90 90 89 89 90 90 90 90 90 90 89 88 87 89 88 87 86
92 92 92 90 90 90 90 90 90 89 90 90 91 93 89 89 88 87 87 88 88 88
93 91 90 90 89 89 88 89 89 89 89 89 93 81 75 84 89 88 87 86 87 88
92 90 89 90 89 87 87 88 87 88 89 88 89 73 71 73 91 89 87 86 87 88
92 91 89 88 88 87 88 87 87 87 88 88 89 72 68 71 87 88 88 87 87 86
93 91 89 87 87 88 88 87 87 89 87 87 88 69 66 69 87 87 86 89 88 87
92 90 89 88 87 88 88 88 91 89 89 82 87 71 64 69 90 86 88 87 86 72
91 90 89 88 88 87 87 88 87 87 88 88 86 86 62 61 83 89 89 90 89 91

GFSNIL_sfc_temp_042.txt.gz
Temp
83 85 85 85 87 86 88 88 86 85 85 84 84 84 84 84 84 82 81 81 79 79
82 84 84 83 86 88 86 91 88 86 85 85 85 84 84 84 82 83 81 80 80 79
84 84 84 84 84 85 87 87 90 85 85 85 85 85 83 84 84 82 82 82 80 79
85 84 84 85 85 86 86 87 86 86 85 85 84 84 83 82 83 82 81 81 80 78
86 86 85 84 86 86 85 86 87 86 85 85 84 84 83 82 84 83 81 80 80 79
86 86 85 85 85 86 85 86 87 86 85 84 85 84 84 83 83 82 82 82 80 80
87 87 87 86 85 86 86 84 86 86 85 85 85 85 85 84 83 82 83 83 82 81
87 88 87 86 86 86 86 86 85 85 86 86 86 88 84 84 84 83 82 83 83 82
87 86 86 86 86 85 85 85 85 85 84 85 89 79 74 82 85 83 82 81 83 83
88 86 86 86 85 84 84 85 84 84 85 84 85 73 72 73 86 84 83 82 82 84
88 87 86 85 84 84 85 84 84 84 84 84 85 72 68 71 84 84 84 83 83 82
89 88 86 85 84 85 85 84 84 85 84 83 84 69 66 68 82 84 82 84 84 83
88 88 87 86 84 85 85 85 87 85 85 80 84 71 64 67 84 82 84 83 83 72
88 87 87 86 85 85 84 85 84 84 85 85 83 83 63 61 82 84 84 84 84 84

GFSNIL_sfc_temp_045.txt.gz
Temp
77 80 80 76 76 78 79 81 82 79 81 79 78 77 77 76 76 76 74 74 73 71
80 78 80 81 76 77 77 81 81 82 79 80 79 78 77 76 76 76 75 74 74 71
80 81 79 78 77 78 79 79 79 82 81 80 80 79 77 76 76 75 75 75 73 73
80 80 81 78 79 79 79 79 78 79 80 80 80 79 78 77 76 75 75 75 73 73
81 81 80 81 77 81 79 82 79 80 80 80 80 80 78 77 80 75 74 74 73 73
81 81 80 81 82 79 82 81 82 79 80 80 80 79 79 79 79 77 76 76 75 75
81 82 82 82 82 82 82 82 82 82 80 81 81 81 81 80 79 79 78 77 78 78
83 83 83 83 82 82 82 82 82 83 83 81 82 83 81 81 80 80 79 79 78 79
84 84 83 83 82 82 81 82 82 82 82 82 84 76 73 80 81 81 80 78 79 80
85 83 83 83 82 82 82 82 82 82 82 81 83 71 70 72 83 82 81 80 80 80
84 83 83 83 82 83 83 82 82 82 82 82 83 70 67 70 82 83 82 82 81 80
84 83 83 82 83 84 84 83 83 83 82 82 82 67 66 68 80 82 82 82 82 81
85 84 83 83 84 84 84 84 84 83 83 78 82 68 63 66 81 80 82 83 83 70
83 83 84 84 84 84 83 83 82 82 84 83 81 80 62 61 80 82 82 82 82 83

GFSNIL_sfc_temp_048.txt.gz
Temp
76 77 78 77 72 75 75 76 77 78 78 77 77 76 74 73 74 73 71 72 70 69
77 79 79 74 74 73 73 77 78 79 78 78 77 76 74 73 74 74 72 71 72 70
79 77 78 77 73 75 74 76 78 77 79 78 78 77 75 74 74 74 73 73 71 71
79 79 76 77 77 78 76 75 75 78 78 78 78 77 75 75 74 74 74 73 72 72
79 79 78 77 77 78 78 77 75 76 76 77 78 78 77 76 78 74 73 74 73 73
78 78 77 78 79 78 78 79 76 75 76 77 78 78 78 78 77 75 75 75 74 75
78 78 78 78 79 79 78 78 78 77 77 77 78 79 79 79 77 77 77 76 75 76
79 80 79 78 78 79 79 78 80 80 77 78 79 80 79 79 78 78 77 76 76 76
79 79 79 79 78 78 78 79 79 79 80 77 80 74 72 78 79 79 78 77 76 77
80 79 79 80 79 78 78 79 79 79 80 80 80 69 69 71 81 79 78 78 78 78
80 80 80 79 79 79 80 79 79 79 80 79 81 68 66 69 79 81 80 79 79 79
82 80 80 79 79 81 80 80 80 80 80 80 80 66 64 67 76 79 80 81 80 80
83 82 80 80 81 82 82 81 82 81 81 76 80 66 63 66 78 77 79 81 81 70
84 82 83 82 82 82 81 82 81 80 82 81 79 79 61 61 79 79 79 79 80 82

GFSNIL_sfc_temp_051.txt.gz
Temp
76 75 75 74 72 72 73 75 76 75 75 75 74 74 72 72 72 71 71 70 68 68
76 76 76 74 73 73 72 75 74 76 75 74 74 74 73 72 72 72 71 70 70 68
77 77 77 72 72 71 72 73 74 74 75 74 74 75 73 73 73 72 71 71 70 69
77 77 77 75 74 74 72 73 73 73 74 74 75 75 74 73 73 73 72 72 71 70
77 77 76 76 75 75 73 71 73 73 74 75 76 75 75 74 75 73 72 73 72 72
77 76 75 76 76 76 75 73 73 73 74 75 75 75 75 76 75 74 75 74 73 74
77 77 77 77 77 76 76 75 74 75 76 76 76 76 76 76 76 75 75 75 74 75
77 78 77 77 76 77 76 77 77 76 75 76 77 78 76 76 76 75 75 75 75 75
77 77 76 76 76 75 76 76 77 76 77 75 78 72 70 76 77 77 76 75 74 76
77 76 76 76 75 75 75 76 75 76 77 76 77 68 68 70 79 77 77 77 77 76
77 76 77 76 76 75 76 75 75 76 76 76 78 67 66 68 77 79 78 78 78 78
78 77 77 76 76 77 77 76 76 77 76 77 77 65 64 66 75 77 78 79 79 78
79 78 77 77 77 79 78 78 79 78 78 74 78 66 62 65 77 75 76 78 79 69
80 80 80 79 79 79 78 79 78 78 79 79 76 77 61 60 77 78 77 77 78 79

GFSNIL_sfc_temp_054.txt.gz
Temp
74 74 74 72 72 73 73 74 76 76 76 76 76 76 75 75 76 75 74 73 72 73
74 74 74 72 73 73 72 76 75 76 76 77 76 76 75 75 75 75 75 75 74 73
75 75 75 73 72 72 72 74 75 75 76 76 76 76 75 75 76 75 75 75 74 73
76 76 75 74 74 73 73 73 74 74 75 76 76 76 75 76 76 75 75 75 74 74
76 76 75 74 74 74 73 73 74 75 75 76 76 76 76 76 77 76 75 76 75 75
76 75 75 75 75 74 74 74 74 75 75 75 76 76 76 76 76 76 76 77 76 76
76 76 76 76 76 74 74 74 74 74 75 76 76 77 77 76 76 76 77 77 77 77
76 76 76 75 76 76 75 75 75 74 75 76 77 78 76 77 76 76 76 77 77 78
76 76 75 75 74 74 75 75 75 75 75 75 78 72 70 76 77 77 76 76 76 77
75 75 75 75 74 73 73 75 74 75 75 75 76 68 68 70 79 78 77 77 77 78
75 74 75 74 74 74 74 74 74 75 75 75 76 67 66 68 76 78 78 78 78 78
76 75 75 74 74 75 75 75 75 75 75 75 76 65 64 66 76 77 77 79 79 78
77 76 75 75 75 76 76 76 77 76 76 72 76 65 62 65 77 76 77 78 78 68
77 76 77 76 77 76 76 77 76 76 77 77 75 76 61 60 76 77 77 77 78 80

GFSNIL_sfc_temp_057.txt.gz
Temp
81 84 84 84 86 85 87 87 87 85 86 85 85 85 84 85 86 84 84 82 82 87
81 81 83 83 83 86 84 87 86 86 85 86 85 85 84 86 84 84 84 84 83 84
82 81 83 82 81 83 84 83 85 85 86 86 85 85 84 85 85 83 85 86 83 83
83 83 82 82 82 83 83 83 83 84 84 85 85 85 83 83 85 83 83 84 83 82
82 83 82 82 82 83 82 83 83 84 84 84 85 85 83 83 86 83 83 84 83 83
83 82 82 82 83 82 82 83 84 83 83 84 85 84 84 84 84 84 84 85 84 84
83 83 83 83 82 82 82 82 83 83 83 84 85 85 85 84 84 84 85 85 86 85
83 83 83 82 82 82 82 83 83 83 83 84 85 88 85 85 85 84 84 85 85 86
82 82 81 81 81 81 81 82 82 82 82 83 86 76 71 80 86 85 84 83 85 85
81 80 80 81 81 80 81 81 80 81 82 82 83 69 68 70 86 86 85 84 84 86
81 80 81 80 80 80 81 81 81 81 82 82 83 68 66 68 81 84 85 85 85 84
82 81 81 80 80 81 80 80 81 82 81 81 82 65 64 67 82 83 83 85 86 85
82 81 80 80 80 81 82 82 84 82 82 77 82 66 62 66 83 82 83 84 83 70
82 81 82 81 82 81 81 83 81 82 83 82 80 80 60 59 80 84 85 85 86 88

GFSNIL_sfc_temp_060.txt.gz
Temp
86 89 90 89 92 92 94 94 93 90 91 90 91 90 89 91 91 90 88 87 87 93
86 86 90 90 89 93 92 95 93 92 90 91 91 90 88 91 89 89 88 88 88 89
87 87 88 89 88 89 92 90 92 90 90 90 90 90 88 91 90 88 91 92 89 88
89 89 88 88 88 88 89 90 88 89 89 90 90 90 88 88 90 88 88 89 88 87
89 89 89 87 88 88 87 89 88 89 88 89 90 90 88 88 91 88 88 88 88 88
89 89 89 88 88 88 87 87 90 89 88 88 90 89 89 89 89 89 89 89 89 89
89 90 90 89 88 88 88 87 88 89 89 89 90 90 90 90 89 89 90 90 90 90
90 90 90 89 88 88 88 88 88 88 89 89 91 94 90 90 90 89 89 90 91 91
88 88 88 88 87 87 87 87 87 88 88 88 93 79 73 83 90 90 88 88 90 90
88 86 86 87 86 86 86 87 86 87 88 88 89 72 70 72 90 91 90 89 89 91
87 86 86 86 86 85 86 86 86 86 87 87 89 69 67 69 86 88 89 90 90 89
88 86 86 85 85 86 86 86 86 87 86 86 87 67 65 69 86 87 87 89 90 90
88 87 86 86 85 86 86 87 90 89 88 81 87 68 63 69 88 88 89 88 88 73
88 87 87 86 86 86 86 88 86 87 88 88 85 85 61 59 85 90 91 92 94 95

GFSNIL_sfc_temp_063.txt.gz
Temp
87 91 91 91 94 94 96 97 94 91 92 91 91 90 89 89 90 90 89 88 87 92
86 87 90 90 91 94 93 98 96 94 91 92 92 92 90 91 88 86 88 88 88 89
87 87 89 90 90 90 93 93 94 93 92 91 92 91 90 91 91 89 91 92 88 89
89 89 89 90 91 90 92 92 91 91 91 91 90 91 89 89 91 88 87 90 91 89
90 90 90 89 90 91 89 91 91 90 90 90 91 91 89 88 91 89 89 89 89 89
91 90 90 89 90 90 89 89 91 90 89 89 90 90 91 90 89 90 90 90 90 89
90 91 91 91 89 90 89 89 89 90 90 90 90 91 91 91 90 90 91 91 91 91
91 91 91 90 90 90 90 89 89 89 90 91 92 94 90 91 91 89 89 91 91 91
90 89 89 89 89 88 88 89 88 89 89 89 93 80 75 85 91 90 89 89 90 91
90 88 88 89 88 87 87 89 87 88 89 88 90 73 71 73 92 91 90 89 89 91
90 88 88 88 87 87 88 87 87 87 88 88 90 72 67 70 89 89 89 91 90 89
91 89 88 87 87 88 88 87 88 89 88 87 88 68 66 70 88 88 87 89 90 90
91 90 88 87 87 88 89 89 91 90 90 82 88 69 64 70 90 88 90 88 87 73
91 89 89 88 88 88 88 89 87 89 90 89 87 86 62 61 86 91 92 92 94 95

GFSNIL_sfc_temp_066.txt.gz
Temp
83 85 85 86 87 87 87 88 85 86 85 85 85 84 83 83 84 83 83 82 83 81
82 83 84 84 86 87 86 91 86 86 86 86 84 84 82 83 80 81 82 82 83 82
82 83 84 83 84 85 87 87 85 86 85 86 86 85 82 83 82 81 82 84 81 82
83 84 83 84 84 84 85 87 87 88 86 85 85 86 84 83 83 82 81 83 83 81
84 83 84 82 85 85 85 86 87 86 86 85 85 85 84 83 85 83 82 82 83 83
85 84 84 83 85 85 84 85 87 86 84 85 85 84 84 84 84 84 84 84 83 83
85 85 85 84 83 85 85 84 85 85 85 85 85 85 85 85 84 84 85 85 85 84
86 86 85 84 84 84 84 85 85 84 85 85 86 89 84 84 84 83 84 85 85 85
85 84 85 84 84 83 83 84 84 84 84 84 89 78 74 81 85 84 83 82 83 85
85 84 83 84 83 83 82 84 83 83 84 83 85 73 71 74 86 84 83 83 83 85
86 84 84 83 83 82 84 83 83 83 83 84 85 72 68 71 83 84 83 84 83 83
87 85 84 83 83 83 83 83 83 84 83 83 84 69 68 69 80 83 82 83 83 83
87 86 84 83 83 84 84 84 86 85 85 80 83 70 65 69 85 82 83 82 82 72
88 86 85 84 84 84 84 85 83 84 85 85 83 83 63 61 82 85 84 84 85 86

GFSNIL_sfc_temp_069.txt.gz
Temp
75 77 75 77 77 83 82 81 79 78 78 78 78 78 76 76 76 76 75 76 74 74
75 77 76 77 78 79 79 81 80 80 79 79 78 78 76 75 75 76 75 75 75 74
78 77 75 77 77 78 79 80 78 81 81 79 78 77 76 75 76 75 75 76 75 74
79 79 75 77 77 77 79 78 80 79 78 78 78 78 76 76 76 75 75 75 75 76
80 79 80 75 75 77 77 77 79 81 81 79 78 78 77 77 79 76 76 76 75 76
80 79 79 80 75 78 77 79 79 79 79 79 78 77 77 77 77 77 77 77 76 76
80 80 80 81 81 77 81 77 77 78 78 78 78 78 78 77 77 77 77 78 78 78
81 82 81 81 79 81 80 82 80 76 77 79 80 82 77 78 78 78 77 77 78 78
82 82 81 80 80 79 80 79 81 81 80 78 83 76 73 78 79 77 79 78 77 78
82 81 81 81 80 79 79 81 79 79 80 79 81 71 71 73 82 80 78 79 79 79
82 81 81 81 80 80 80 80 81 80 80 80 81 70 69 71 80 81 81 78 79 79
83 81 81 80 81 81 81 80 81 81 80 79 80 68 67 68 74 79 79 80 80 79
83 82 81 81 82 82 82 82 81 81 82 77 80 68 65 67 80 76 78 78 75 69
84 83 82 82 83 83 82 82 81 81 82 81 79 80 63 62 80 81 79 79 79 81

GFSNIL_sfc_temp_072.txt.gz
Temp
74 74 74 74 78 79 80 79 77 78 76 76 75 75 74 73 73 74 73 73 72 72
74 73 74 74 74 78 81 80 76 78 77 76 76 75 74 73 73 73 73 73 72 72
76 74 74 74 74 75 77 77 76 77 78 76 76 75 74 73 73 73 73 73 72 72
78 76 72 74 76 75 75 77 77 78 78 77 75 75 73 73 73 73 72 73 73 73
78 78 75 72 74 75 75 75 76 78 78 78 77 75 74 73 76 73 73 74 73 73
78 78 78 78 73 74 75 74 75 77 78 77 77 76 76 76 74 74 74 74 74 74
78 79 79 80 78 72 76 75 75 76 78 79 79 78 77 76 74 74 75 75 75 75
79 79 79 79 79 77 75 78 77 77 77 77 79 80 78 77 76 74 73 74 75 75
79 79 78 78 79 78 77 77 76 75 78 77 81 74 71 76 75 75 74 75 74 75
79 78 78 78 77 77 77 79 78 78 76 76 77 70 69 71 78 75 76 76 77 76
80 79 79 79 77 78 77 77 78 77 79 79 79 68 67 70 77 77 77 77 77 77
77 79 79 78 78 78 78 77 78 79 77 77 79 66 66 67 76 77 77 77 78 78
74 76 78 79 79 80 80 79 79 79 80 76 79 67 64 65 78 75 77 78 76 68
71 81 82 81 76 81 80 80 79 79 80 80 77 79 62 61 77 79 77 77 77 77

GFSNIL_sfc_temp_075.txt.gz
Temp
72 73 72 72 72 74 75 76 75 74 74 74 73 73 72 72 72 72 71 72 71 71
72 72 72 72 72 74 75 78 75 75 75 75 74 73 73 72 72 72 72 72 71 71
74 72 71 72 72 72 74 75 75 74 74 73 74 74 72 72 72 72 71 72 71 71
76 71 70 71 72 73 73 74 74 74 74 73 74 73 72 72 72 72 71 71 71 71
77 75 71 71 72 73 73 73 75 75 74 74 75 74 72 72 74 72 71 72 71 72
76 76 75 73 71 72 73 73 73 73 74 75 76 74 73 73 72 72 72 73 72 73
76 76 77 78 73 72 73 73 73 73 74 75 76 77 76 75 73 72 73 73 73 73
77 77 77 77 77 73 72 75 74 74 73 75 76 78 76 75 74 74 73 73 73 73
76 77 76 76 76 77 73 73 71 73 76 73 78 72 70 75 76 74 73 73 72 73
72 72 75 76 75 75 76 76 75 73 74 75 77 69 68 71 79 77 75 74 74 73
76 74 75 75 75 75 76 76 76 76 76 74 77 68 66 69 76 76 76 76 75 75
75 76 75 74 76 76 76 76 76 77 77 77 77 65 65 66 74 75 75 75 75 75
72 74 75 77 75 74 75 76 77 76 77 73 77 65 63 65 77 75 76 77 75 67
69 70 70 75 76 77 75 74 75 76 77 77 75 76 61 61 76 77 77 76 77 77

GFSNIL_sfc_temp_078.txt.gz
Temp
72 74 73 73 73 74 74 76 76 76 76 75 76 76 74 75 76 75 75 75 75 76
71 71 73 73 74 74 75 78 77 77 76 75 74 75 75 75 73 75 75 75 75 75
72 72 73 73 73 74 75 76 76 76 77 75 75 74 74 75 75 75 75 76 75 75
73 72 71 73 74 75 75 75 75 76 76 76 74 74 74 74 75 75 75 75 75 75
75 73 72 72 73 74 75 75 75 75 76 76 76 75 75 74 77 75 75 75 75 75
75 73 73 73 73 73 74 74 75 75 75 76 76 76 76 75 76 76 76 76 75 76
75 75 75 75 73 73 73 74 74 75 76 76 76 77 77 76 76 76 76 76 76 77
75 75 75 75 74 74 73 74 75 75 76 76 77 78 76 77 76 76 76 76 76 77
75 74 74 74 74 72 73 73 73 74 75 75 79 71 70 75 77 77 76 76 76 77
72 73 74 74 73 72 72 73 72 73 74 75 76 68 68 70 78 77 77 76 77 77
73 73 73 73 72 73 74 73 73 73 73 74 76 66 66 69 77 77 77 77 77 77
74 73 73 73 73 73 74 73 74 74 73 73 75 65 64 67 76 77 77 77 77 77
68 70 73 73 72 73 74 75 76 75 75 71 74 64 62 65 77 76 77 77 76 66
67 67 70 71 74 73 74 72 74 74 75 75 73 74 61 60 75 77 77 77 79 79

GFSNIL_sfc_temp_084.txt.gz
Temp
86 90 90 91 93 91 94 94 93 89 90 89 90 89 88 90 91 90 90 88 89 95
86 86 90 90 91 93 92 96 92 91 90 90 89 88 88 91 89 89 88 89 88 90
88 87 88 89 88 89 93 91 93 91 90 90 89 89 87 90 89 87 90 92 89 88
90 89 88 88 88 88 90 91 88 89 88 90 90 90 87 89 90 87 87 89 89 87
89 90 89 87 89 88 88 90 90 89 88 89 90 90 88 88 91 88 87 88 88 88
88 89 85 88 89 89 88 88 91 90 89 88 90 89 88 89 89 90 89 89 88 88
85 85 86 84 88 89 88 87 88 89 89 90 90 91 91 89 88 89 90 90 90 90
89 87 84 83 83 88 88 88 88 88 89 89 91 94 89 90 90 88 89 91 91 91
87 87 87 86 85 84 86 87 87 87 88 88 93 79 73 83 89 90 88 89 90 90
82 82 83 85 85 84 83 85 85 86 87 87 88 73 69 72 91 92 90 89 90 92
74 76 83 82 82 83 85 84 85 85 85 86 88 70 68 69 87 89 90 91 90 89
65 69 73 76 81 82 80 82 85 86 85 85 85 67 66 70 87 87 87 90 91 91
64 65 67 72 77 78 81 83 85 86 87 80 85 69 63 68 88 87 89 88 88 73
65 63 65 65 71 77 78 78 79 82 85 86 84 84 61 60 84 89 90 91 92 94

GFSNIL_sfc_temp_087.txt.gz
Temp
88 91 92 90 87 89 89 96 90 91 90 90 90 90 89 90 91 91 90 88 88 91
88 88 92 92 91 91 92 83 91 93 90 91 91 91 89 90 89 89 89 89 89 90
89 89 89 91 90 92 93 94 78 91 91 91 91 90 88 89 91 89 91 92 89 89
91 91 89 90 90 90 91 91 92 90 91 91 91 90 89 88 91 88 88 89 90 89
92 92 91 89 90 90 89 91 90 90 90 89 91 91 88 89 92 90 88 88 88 89
92 91 91 91 90 91 89 89 91 91 88 88 90 90 90 88 90 90 90 90 89 89
91 92 92 91 90 91 90 89 89 90 91 90 90 91 91 91 89 90 91 92 91 91
91 90 90 89 88 88 90 90 89 89 90 91 92 95 91 91 91 88 88 91 92 92
77 78 83 88 86 86 85 87 89 88 89 89 93 80 74 84 91 90 86 87 90 92
73 73 73 79 82 83 84 86 87 88 89 88 89 74 70 73 92 92 89 89 89 91
68 70 71 73 78 81 82 81 84 86 87 87 89 71 69 70 88 89 89 90 91 89
66 66 68 71 71 76 78 81 81 84 85 86 87 69 66 70 87 88 87 89 90 90
72 68 65 67 68 70 75 77 80 82 86 80 86 71 64 68 88 87 89 88 87 74
74 73 69 66 67 68 71 73 75 79 81 83 84 84 62 61 85 87 90 91 93 94

GFSNIL_sfc_temp_090.txt.gz
Temp
84 81 84 84 81 80 78 78 83 83 85 86 85 86 85 84 84 84 84 82 83 82
84 84 85 86 86 88 82 76 79 82 84 86 85 84 84 83 83 84 83 83 83 82
85 85 85 85 83 88 84 79 77 77 76 85 85 85 83 82 82 82 83 84 82 82
86 86 86 86 88 88 89 78 75 73 73 80 84 85 83 81 81 82 82 83 83 82
86 87 86 85 86 87 85 87 83 77 78 83 86 83 82 83 85 81 82 83 82 82
88 87 87 85 86 86 86 85 87 86 85 84 85 85 82 82 83 83 84 84 82 83
86 88 88 86 84 86 85 85 85 85 85 84 85 85 86 85 82 82 84 84 84 84
73 80 89 86 83 86 86 86 85 85 85 86 86 89 85 85 85 82 83 84 84 85
70 73 76 77 81 83 84 84 83 84 85 84 89 80 75 81 85 85 83 82 82 84
70 71 72 74 76 78 81 82 82 83 84 83 84 74 70 71 85 85 84 82 82 84
68 69 70 70 71 72 75 78 79 80 82 81 83 72 71 70 79 83 83 84 83 83
68 68 68 67 67 70 70 71 76 79 80 80 81 68 66 69 81 82 81 83 84 84
73 72 71 69 68 70 71 72 76 76 78 76 79 70 63 66 82 82 83 82 81 73
73 72 73 72 72 70 70 72 73 74 76 78 76 77 63 60 76 80 82 83 84 86

GFSNIL_sfc_temp_093.txt.gz
Temp
75 73 74 76 74 74 73 77 78 77 77 77 78 78 77 76 76 76 75 75 75 75
75 75 76 76 79 77 75 77 78 78 78 78 78 77 77 75 75 76 76 75 75 75
75 76 76 77 77 75 75 75 76 75 76 77 78 78 76 75 75 75 75 77 75 75
76 77 76 77 78 79 74 74 73 73 75 75 76 77 76 75 76 75 75 76 75 76
80 78 76 76 78 78 76 74 75 73 72 75 76 77 76 76 78 75 75 76 75 76
76 80 75 76 78 79 78 76 75 75 74 75 77 77 76 77 76 76 76 77 76 76
70 71 75 77 78 78 78 78 78 77 77 77 78 78 77 77 76 76 78 77 77 77
70 71 71 71 75 77 76 78 78 78 78 78 78 82 77 78 77 75 76 77 77 79
68 69 69 70 71 75 76 77 77 77 77 77 83 76 73 77 77 77 77 77 76 78
67 67 67 69 69 69 69 73 74 75 74 76 76 72 71 70 75 76 76 76 77 78
66 66 66 66 66 66 67 68 70 72 74 75 77 70 66 68 72 75 76 77 77 78
66 66 66 65 65 65 66 67 68 70 71 73 73 66 65 66 72 71 74 76 77 76
64 64 64 64 64 65 65 66 69 68 70 69 73 66 63 64 70 73 72 76 76 69
63 63 63 63 63 63 64 66 66 67 68 71 71 69 59 59 68 72 73 74 78 79

GFSNIL_sfc_temp_096.txt.gz
Temp
73 72 71 73 71 71 72 74 75 75 74 75 75 75 74 73 74 74 73 74 72 72
73 73 74 74 74 71 73 75 77 76 76 76 75 75 74 74 74 73 72 72 73 72
73 73 73 73 74 74 74 75 74 75 76 76 76 75 74 74 73 73 73 74 72 72
74 74 73 74 75 72 73 73 73 74 74 74 75 75 74 73 74 74 73 73 73 73
73 73 74 74 74 74 73 73 73 73 72 73 74 74 74 74 76 74 73 74 73 73
70 72 73 74 75 74 74 73 73 73 72 72 73 74 74 74 75 74 74 75 74 74
69 70 69 71 72 73 74 74 74 73 73 73 74 75 75 75 74 74 75 75 75 75
69 70 68 69 70 71 73 74 75 75 74 74 75 79 75 75 74 73 74 74 74 76
67 68 68 69 69 69 69 72 74 75 74 74 79 72 71 74 74 75 74 74 74 76
65 65 65 66 66 67 67 68 69 71 73 73 74 68 67 69 72 73 74 74 76 77
65 65 65 65 65 65 66 67 68 68 70 70 73 67 65 66 70 72 73 74 74 74
65 64 65 65 65 65 65 65 66 68 68 69 70 63 62 64 71 71 71 73 74 75
62 62 63 63 63 64 64 65 66 67 67 66 69 60 59 62 69 69 70 72 73 67
59 61 62 61 61 62 63 64 63 65 67 68 66 63 57 58 67 67 68 70 72 71

GFSNIL_sfc_temp_099.txt.gz
Temp
71 70 70 72 71 71 71 73 74 73 73 73 73 73 73 72 72 72 71 72 71 72
71 71 72 72 72 71 72 73 74 74 74 74 74 74 73 71 72 72 72 71 71 71
71 72 72 71 72 72 72 72 74 74 74 74 74 74 73 72 72 71 71 72 72 71
72 72 72 72 73 73 73 73 73 73 74 74 74 74 73 72 72 72 71 72 71 72
72 72 72 72 73 74 73 73 73 73 72 73 73 73 73 72 74 73 72 72 71 71
70 70 71 71 71 73 73 72 72 72 71 72 72 72 73 73 73 73 73 73 71 72
69 67 67 68 70 71 72 71 72 72 72 71 72 72 73 73 73 73 74 74 73 73
68 69 68 68 68 69 70 72 72 72 72 72 73 76 73 74 74 72 72 73 73 74
68 68 67 67 67 67 68 69 69 71 72 72 76 71 69 73 73 73 72 72 72 74
65 65 64 65 65 65 65 67 67 68 69 70 71 65 64 66 70 72 72 72 72 74
64 64 65 65 64 64 65 65 66 67 68 68 70 63 62 64 68 69 70 71 72 72
62 63 62 61 62 64 64 65 65 67 67 67 68 61 60 63 68 69 69 70 70 72
60 62 61 61 61 62 62 63 64 65 67 65 68 58 58 62 68 68 69 70 70 64
55 57 56 59 60 61 60 62 61 64 67 67 65 63 56 58 64 63 64 65 65 68

GFSNIL_sfc_temp_102.txt.gz
Temp
71 70 70 72 71 72 73 75 76 75 75 75 75 75 74 76 76 76 75 76 75 76
71 72 72 72 73 73 74 75 76 76 76 76 76 75 75 75 76 76 76 76 75 76
72 73 73 73 73 72 73 75 75 73 75 74 76 76 75 75 76 75 75 76 75 75
72 73 73 74 74 74 75 74 74 74 74 75 75 76 75 74 75 75 75 75 75 76
73 74 72 73 74 75 74 74 73 74 74 75 75 76 75 75 75 75 75 75 75 75
69 69 69 71 72 74 74 74 73 73 74 74 75 75 74 75 75 74 74 74 74 75
68 68 69 69 70 70 72 74 74 73 73 73 74 74 74 75 75 76 76 75 75 75
69 69 69 69 69 69 70 71 73 73 74 75 75 78 75 75 76 76 76 75 76 77
67 68 67 67 68 68 68 69 70 71 72 73 74 68 66 70 76 76 76 76 77 77
65 65 64 66 66 66 67 68 68 69 70 70 71 62 63 66 71 73 75 75 76 77
65 63 63 63 64 64 64 66 67 68 69 69 70 61 60 63 71 71 72 72 73 73
62 61 61 61 61 63 62 62 65 67 67 69 63 58 59 66 70 70 71 72 71 71
59 59 59 60 61 62 61 62 64 67 67 63 65 56 56 62 65 65 65 68 69 62
56 56 56 58 60 59 59 60 59 60 60 60 58 56 55 55 61 61 63 64 64 66

GFSNIL_sfc_temp_105.txt.gz
Temp
81 83 83 82 83 84 84 84 85 84 84 84 84 84 83 86 87 85 87 84 85 89
80 81 83 81 82 84 83 85 85 85 85 85 84 83 83 86 83 85 85 85 85 86
82 81 82 82 81 81 83 83 83 83 84 84 84 84 83 83 83 83 86 88 83 84
81 82 82 82 81 82 83 82 82 82 82 82 83 83 83 83 83 83 83 84 83 83
82 81 81 81 82 81 81 82 82 82 82 83 83 84 82 83 83 83 83 83 83 83
79 80 79 80 80 81 82 82 82 80 82 84 83 82 82 83 83 83 83 84 82 84
75 77 78 77 78 80 81 82 81 82 81 82 83 83 83 83 82 84 85 83 83 84
69 74 76 76 76 77 78 79 81 81 81 81 80 82 82 83 83 83 83 85 84 85
70 73 72 74 74 75 76 77 79 79 79 78 78 64 65 73 83 83 83 83 84 85
66 66 69 72 73 73 74 75 75 76 78 76 72 61 62 66 82 81 81 81 81 81
65 65 68 68 66 68 71 73 74 75 75 71 68 59 60 64 80 79 77 76 76 76
64 66 68 66 65 65 67 69 71 71 69 67 64 56 57 69 76 75 74 74 70 70
64 67 67 67 67 66 66 65 62 63 65 60 62 55 55 64 76 72 74 73 73 62
62 61 62 63 65 65 65 62 61 62 60 59 58 55 54 55 67 70 73 73 73 75

GFSNIL_sfc_temp_108.txt.gz
Temp
85 89 84 88 92 91 85 91 90 89 89 89 89 89 88 91 92 91 92 89 88 95
86 86 84 86 85 91 90 93 90 90 90 90 89 89 88 92 88 89 89 90 89 91
88 88 87 87 86 86 89 89 88 88 89 88 89 89 87 89 89 87 91 93 89 88
89 89 88 86 89 88 87 86 88 88 87 88 88 88 86 88 89 87 88 89 88 88
88 88 89 87 89 88 87 87 88 88 87 88 89 88 86 87 91 88 87 88 88 88
86 88 87 88 88 88 87 88 89 87 88 88 89 87 87 88 87 88 89 89 88 88
83 87 86 87 86 87 87 87 88 88 88 88 90 89 90 89 88 88 90 89 89 88
81 82 84 84 84 85 86 87 88 88 88 88 87 91 88 88 88 88 88 88 89 90
71 72 76 81 82 82 83 85 86 86 87 88 87 63 65 73 86 88 87 87 88 90
69 68 69 71 77 80 80 82 82 83 80 75 76 61 62 66 87 86 87 85 86 86
68 68 66 68 69 73 79 79 79 74 75 75 71 59 61 66 81 76 74 75 74 72
66 67 70 70 72 73 68 74 70 73 74 70 66 56 57 71 82 79 78 77 76 77
68 70 69 70 73 75 69 66 66 70 69 62 66 54 55 65 84 79 83 80 76 60
69 70 72 71 74 72 66 65 65 65 65 63 64 60 54 54 71 77 81 81 80 79

GFSNIL_sfc_temp_111.txt.gz
Temp
87 90 91 89 76 93 92 91 87 90 91 90 91 91 90 91 92 92 92 90 89 93
87 87 89 83 89 85 92 91 92 92 90 91 90 91 90 90 90 90 90 91 90 91
89 89 89 89 87 84 74 89 89 91 91 90 90 91 89 90 90 89 91 93 91 89
91 91 90 89 89 90 90 89 88 89 89 89 89 90 88 87 87 89 89 89 89 89
91 91 91 89 89 90 88 89 88 89 88 88 89 86 88 88 89 87 87 89 89 89
87 89 90 90 90 90 89 89 91 89 88 88 89 89 88 88 88 88 88 87 89 89
85 89 90 90 90 90 89 88 89 89 89 89 90 90 89 89 89 89 91 91 90 89
82 84 88 87 88 89 89 89 89 89 89 89 90 85 82 89 90 89 89 91 91 91
79 76 81 80 78 84 87 87 88 89 89 89 74 63 64 70 88 90 87 87 89 91
73 70 71 73 78 80 80 83 82 82 77 75 72 60 62 66 83 87 85 83 83 85
70 68 67 68 68 69 73 77 76 75 75 75 70 58 60 63 81 77 78 79 79 78
70 71 71 68 66 68 70 69 69 71 71 70 65 56 58 69 83 80 78 77 75 78
68 69 71 74 74 73 72 71 70 67 67 63 66 55 56 65 86 82 83 79 72 60
71 71 71 71 71 70 67 66 66 63 62 62 63 60 55 55 72 71 77 84 82 76

GFSNIL_sfc_temp_117.txt.gz
Temp
73 72 73 74 73 71 73 75 77 77 77 78 78 79 77 77 76 77 76 76 75 75
75 75 74 75 73 73 75 77 75 75 77 79 78 79 78 76 76 77 77 76 76 75
76 76 75 74 72 73 74 73 73 74 74 77 79 79 77 75 76 76 77 77 77 76
76 77 77 76 76 74 73 72 72 74 74 77 78 78 77 76 77 76 75 76 76 77
76 77 76 76 77 74 71 71 75 75 76 77 77 77 76 77 77 76 75 76 76 76
75 76 76 77 77 76 76 75 76 76 76 77 77 77 76 76 76 77 76 75 76 79
73 74 73 75 76 77 76 76 76 76 76 76 74 73 74 75 76 75 75 75 77 75
72 73 72 73 73 73 75 75 76 75 73 70 67 66 68 73 74 72 71 71 74 71
71 71 70 70 71 73 72 73 73 70 68 65 64 64 64 67 71 72 71 70 71 69
68 67 67 69 69 70 71 71 69 66 63 58 58 60 61 66 70 71 68 70 70 67
68 67 67 67 68 70 69 68 65 64 60 59 60 59 60 65 70 65 66 66 64 61
67 66 66 67 67 65 63 62 62 62 62 60 60 58 60 67 67 64 61 63 64 63
68 67 66 65 66 65 62 60 59 60 61 59 60 57 58 62 68 62 62 62 61 61
67 66 66 66 68 65 61 60 59 59 60 60 60 59 57 58 59 62 64 64 62 62

GFSNIL_sfc_temp_120.txt.gz
Temp
72 70 71 72 72 71 72 73 75 75 75 75 76 76 75 74 74 74 74 74 73 70
72 72 72 73 72 71 72 75 74 75 75 76 76 76 75 73 73 73 73 73 73 72
73 73 73 72 71 72 73 73 73 73 74 75 75 76 74 73 74 74 74 74 74 73
73 74 74 73 72 72 72 71 72 72 73 75 75 73 74 73 74 74 74 74 74 74
73 73 74 74 74 73 72 71 72 71 73 73 75 74 74 74 76 74 74 74 73 75
72 72 72 73 74 73 72 70 71 73 74 74 75 74 74 74 75 75 74 74 73 75
71 72 72 72 73 73 72 72 73 73 73 72 73 72 73 74 74 74 73 72 72 71
71 71 71 71 70 72 73 73 74 71 69 68 68 67 68 70 72 71 70 71 70 68
71 70 70 70 71 71 71 70 70 66 65 63 65 63 64 67 69 70 70 69 68 66
69 68 68 69 69 69 69 68 64 61 60 58 59 61 61 65 69 69 67 68 64 66
67 66 66 68 68 69 68 65 62 59 59 58 60 59 60 65 67 66 64 63 61 60
67 67 67 64 63 61 63 61 59 57 55 54 56 57 61 64 63 61 60 61 62 62
66 66 65 65 64 61 59 56 55 54 56 58 58 56 59 62 60 59 63 62 60 60
66 67 65 66 62 60 59 59 57 56 55 55 57 57 58 59 62 61 64 63 63 60

GFSNIL_sfc_temp_123.txt.gz
Temp
71 70 70 71 70 70 71 72 74 73 73 73 74 74 73 72 72 72 72 72 71 70
70 70 70 71 71 70 71 73 73 74 74 74 74 74 73 72 72 72 72 72 72 71
71 71 70 71 71 71 71 73 73 73 72 74 74 74 73 72 72 72 72 72 72 71
71 71 72 72 71 70 72 71 71 71 72 73 74 74 73 72 72 72 72 72 72 72
71 71 72 72 72 70 71 71 70 70 70 73 73 73 72 73 74 73 72 73 72 73
70 70 71 71 72 71 71 71 71 70 70 72 73 73 73 73 74 73 73 73 72 72
70 70 70 71 71 71 70 70 69 70 72 73 73 73 73 73 72 72 72 72 71 72
70 70 70 71 71 72 71 71 72 71 70 70 70 68 68 70 72 71 71 69 69 68
69 69 68 68 69 69 69 70 69 68 67 66 66 63 64 66 69 70 69 67 66 67
69 68 68 68 68 68 69 67 65 63 63 62 61 61 61 65 68 69 67 65 64 65
68 67 67 68 67 68 68 64 62 61 63 62 61 61 60 65 67 66 64 63 61 61
67 67 67 65 63 61 62 60 58 56 57 59 60 58 61 64 62 60 60 60 61 62
67 66 65 63 60 58 56 54 55 55 56 56 57 57 59 60 58 56 57 59 60 60
66 66 65 63 61 59 58 57 56 55 54 53 54 57 56 57 58 57 57 59 60 59

GFSNIL_sfc_temp_126.txt.gz
Temp
71 72 71 72 72 72 73 74 76 75 75 75 75 76 76 75 76 76 75 76 75 73
71 72 71 72 73 72 73 75 75 75 75 75 75 76 75 76 76 76 75 76 75 75
72 72 72 73 72 73 73 74 75 75 75 75 76 76 75 75 76 75 76 77 76 76
73 73 72 73 73 73 73 73 74 75 75 75 74 75 75 75 75 75 75 76 75 76
72 73 73 73 74 73 72 73 73 73 73 73 75 75 75 75 77 75 75 75 75 76
72 72 72 73 73 73 72 73 72 72 71 72 74 74 75 75 75 76 76 75 75 76
71 71 72 73 73 73 73 73 72 72 73 73 75 75 75 75 75 75 76 76 75 76
72 72 71 71 72 73 73 73 73 72 73 74 74 73 73 73 74 74 74 73 72 72
71 71 71 71 71 71 72 72 73 73 72 71 70 64 65 67 71 72 72 70 70 70
70 70 70 70 70 70 70 70 70 70 69 68 66 62 62 65 69 71 70 68 67 68
68 68 69 69 69 69 70 69 66 64 65 65 64 61 61 64 70 69 68 67 65 65
68 67 68 66 65 65 64 61 61 61 61 63 64 59 61 64 64 62 61 62 64 65
67 67 65 63 62 59 57 55 56 57 58 58 62 58 59 61 60 58 57 60 62 59
66 65 63 61 59 58 57 57 57 56 55 55 56 60 58 57 59 57 56 57 57 56